Regional Weather Roundup
Issued by NWS

Home | Current Version | Previous Version | Text Only | Print | Product List | Glossary Off
Versions: 1 2 3 4 5 6 7 8 9 10 11 12 13 14 15 16 17 18 19 20 21 22 23 24 25 26 27 28 29 30 31 32 33 34 35 36 37 38 39 40 41 42 43 44 45 46 47 48 49 50

000
ASUS43 KLOT 010706
RWRIL

ILLINOIS REGIONAL WEATHER ROUNDUP
NATIONAL WEATHER SERVICE CHICAGO/ROMEOVILLE IL
100 AM CST SUN FEB 01 2015

NOTE: "FAIR" INDICATES FEW OR NO CLOUDS BELOW 12,000 FEET WITH NO
SIGNIFICANT WEATHER AND/OR OBSTRUCTIONS TO VISIBILITY.

* THESE STATIONS ARE NOT UNDER NWS QUALITY CONTROL. THEY ALSO MAY NOT
  REPORT WEATHER SUCH AS PRECIPITATION OR FOG.

ILZ001-002-007-009-015-016-024-010800-
NORTHWEST ILLINOIS

CITY           SKY/WX    TMP DP  RH WIND       PRES   REMARKS
MOLINE         LGT SNOW  33  31  92 E9        30.00F FOG     WCI  25
STERLING*        N/A    N/A N/A N/A MISG        N/A
SAVANNA*       LGT SNOW  32  32  99 E6        30.05F VSB 1   WCI  27
$$

ILZ003-004-008-010-011-017-018-010800-
NORTH CENTRAL ILLINOIS

CITY           SKY/WX    TMP DP  RH WIND       PRES   REMARKS
ROCKFORD       LGT SNOW  30  27  88 E12       30.10F VSB 1   WCI  20
FREEPORT*      LGT SNOW  29  28  96 E12       30.09F VSB 3/4 WCI  20
ROCHELLE*      LGT SNOW  32  32 100 E7        30.08F WCI  26
DE KALB*       LGT SNOW  29  28  97 E8        30.09F VSB 1   WCI  21
PERU*          LGT SNOW  33  33 100 SE6       30.08F WCI  28
$$

ILZ005-006-012>014-019>023-010800-
NORTHEAST ILLINOIS

CITY           SKY/WX    TMP DP  RH WIND       PRES   REMARKS
CHICAGO-OHARE  LGT SNOW  30  29  96 NE8       30.12F VSB 1   WCI  22
CHICAGO-MIDWAY LGT SNOW  33  31  92 E8        30.12F VSB 1   WCI  26
AURORA         LGT SNOW  33  30  88 E7        30.10F VSB 3/4 WCI  27
LANSING*       LGT SNOW  32  32 100 CALM      30.13F VSB 1
JOLIET*        SNOW      32  32  99 CALM      30.11F VSB 1/2
WAUKEGAN       LGT SNOW  30  29  96 NE13      30.13F VSB 1   WCI  20
DUPAGE AIRPORT LGT SNOW  31  29  92 E7        30.11F VSB 1   WCI  24
KANKAKEE*      LGT SNOW  32  32  99 SE3       30.12F
WHEELING       LGT SNOW  31  29  92 E7        30.14F FOG     WCI  24
MORRIS*        LGT SNOW  32  32 100 CALM      30.10F VSB 1
ROMEOVILLE*    LGT SNOW  32  32 100 CALM      30.11F VSB 1
NORTHERLY ISL    N/A     31  30  96 NE8         N/A  WCI  24
$$

LMZ740>746-010800-
SOUTHERN LAKE MICHIGAN

STATION/POSITION SKY/WX   TEMP    WIND        PRES    VSBY  WAVE
                          AIR SEA DIR/SP/G                  HT/PER
                          (F)     (DEG/KT/KT) (MB)    (MI)  (FT/S)
WAUKEGAN HARBOR            31      70/ 16/ 20   N/A
HARRISON CRIB              31      60/ 10/ 11   N/A
BURNHAM HARBOR             31      70/  7/  9   N/A
CALUMET HARBOR             31      80/  5/  8   N/A
MICHIGAN CITY              30      50/  6/  7   N/A
$$

ILZ025>027-034>036-040-047-049-050-058-095>099-010800-
WEST-CENTRAL ILLINOIS

CITY           SKY/WX    TMP DP  RH WIND       PRES   REMARKS
QUINCY         LGT SNOW  33  31  92 SE9       29.96F FOG     WCI  25
GALESBURG*     LGT SNOW  32  32 100 SE8       30.01F WCI  25
MACOMB*        LGT SNOW  32  32 100 E9        30.02F WCI  25
JACKSONVILLE*  CLOUDY    36  33  88 SE10      30.00F WCI  29
PITTSFIELD*    LGT RAIN  35  32  88 SE3       30.01R
$$

ILZ028>032-037-038-041>044-048-051>054-059>061-010800-
CENTRAL ILLINOIS

CITY           SKY/WX    TMP DP  RH WIND       PRES   REMARKS
PONTIAC        MIX PCPN  33  33 100 SE6       30.09F WCI  28
BLOOMINGTON    MIX PCPN  33  33 100 S6        30.07F FOG     WCI  27
DECATUR        CLOUDY    34  31  88 E12       30.05F WCI  25
PEORIA         LGT SNOW  34  33  96 S3        30.06F VSB 1
LACON*         RAIN      32  31  98 SE5       30.06F WCI  27
LINCOLN*       RAIN      34  33  96 E7        30.08F WCI  28
SPRINGFIELD    CLOUDY    35  32  88 SE12      30.03F WCI  27
TAYLORVILLE    CLOUDY    34  30  86 E7        30.04F WCI  28
$$

ILZ033-039-045-046-055>057-062-063-010800-
EAST-CENTRAL ILLINOIS

CITY           SKY/WX    TMP DP  RH WIND       PRES   REMARKS
CHAMPAIGN      CLOUDY    33  31  92 E8        30.08F FOG     WCI  26
DANVILLE*      CLOUDY    32  32 100 SE5       30.08F FOG     WCI  27
RANTOUL*       CLOUDY    34  33  98 SE5       30.09F FOG     WCI  30
MATTOON        CLOUDY    34  29  82 E8        30.04F WCI  27
PARIS*         CLOUDY    33  32  99 CALM      30.12S FOG
$$

ILZ079-100>102-010800-
SOUTHWEST ILLINOIS

CITY           SKY/WX    TMP DP  RH WIND       PRES   REMARKS
ALTON          CLOUDY    37  27  66 E6        30.00F WCI  33
BELLEVILLE     CLOUDY    37  29  70 E5        29.99F WCI  34
CAHOKIA*       CLOUDY    39  27  62 SE9       29.98F WCI  33
SPARTA*        CLOUDY    38  26  62 SE10      30.00F WCI  31
$$

ILZ064>066-069>071-074>076-080>082-084>086-088>090-092>094-010800-
SOUTH-CENTRAL ILLINOIS

CITY           SKY/WX    TMP DP  RH WIND       PRES   REMARKS
CARBONDALE     CLOUDY    39  25  57 SE8       30.01F WCI  33
CAIRO*         CLOUDY    42  28  56 E6        30.03F
EFFINGHAM*     CLOUDY    36  26  68 NE6       30.07F WCI  31
MARION         CLOUDY    41  25  52 SE7       30.03F
MT. VERNON     CLOUDY    37  25  60 E7        30.04F WCI  32
CENTRALIA*     CLOUDY    38  26  61 SE10      30.02F WCI  31
SALEM*         CLOUDY    39  27  62 E9        30.03F WCI  33
METROPOLIS*    CLOUDY    42  24  47 CALM      30.04F
$$

ILZ067-068-072-073-078-083-087-091-010800-
SOUTHEAST ILLINOIS

CITY           SKY/WX    TMP DP  RH WIND       PRES   REMARKS
LAWRENCEVILLE  CLOUDY    35  27  72 E6        30.10F WCI  30
FLORA*         CLOUDY    36  28  74 E3        30.08F
FAIRFIELD*     CLOUDY    37  28  70 E5        30.05F WCI  33
HARRISBURG*    CLOUDY    38  28  67 E3        30.07F
ROBINSON*      CLOUDY    34  30  84 CALM      30.13F
CARMI*         CLOUDY    38  31  74 E7        30.07F WCI  33
$$

ABBREVIATIONS USED IN REMARKS
   TC - TEMPERATURE IN CELSIUS
  WCI - WIND CHILL INDEX
   HX - HEAT INDEX
  VSB - VISIBILITY
$$



USA.gov is the U.S. government's official web portal to all federal, state and local government web resources and services.